Location: Newark
(8.1700°N, 77.4300°E)
Time: 05:29:59
(UTC+00:00)

Hubble Space Telescope - Pass Details

Date: 23 August 2019
Orbit: 536 x 540 km, 28.5° (Epoch: 19 September)

Event Time Altitude Azimuth Distance (km) Brightness Sun altitude
Rises 14:51:12 0° 320° (NW) 2,662 5.2 -26.8°
Reaches altitude 10° 14:54:08 10° 342° (NNW) 1,772 3.8 -27.5°
Enters shadow 14:55:14 14° 356° (N) 1,543 3.3 -27.7°
